星链-3637 (STARLINK-3637 )

导读

STARLINK-3637是美国太空探索技术公司(SpaceX)于2022年2月25日发射的星链(Starlink)卫星,属于星链卫星互联网星座的组成部分。星链项目旨在通过在低地球轨道部署数千颗小型卫星,为全球尤其是基础设施匮乏地区提供高速低延迟的宽带互联网服务,STARLINK-3637承担着覆盖增强与网络扩容的功能。

基本信息
目录编号:
51799
目录名称:
STARLINK-3637
国际标识:
2022-017AH
轨道中心:
EARTH
卫星名称:
星链-3637
卫星全名:
星链-3637 (STARLINK-3637 )
卫星状态:
在轨 (已飞行1573 天)
发射日期:
2022-02-25 UTC
国别 :
美国 (US)
星等 :
--
轨道信息
数据来源 国际轨道数据
星历时间: 2026-06-17T20:00:03+0800
5小时前
查看轨道信息
半长轴: 6903.891km
偏心率: 0.0002033
轨道倾角: 53.159°
近地点辐角 131.104°
升交点赤经 260.881°
平近点角 192.912°
近地点: 524.35km
远地点: 527.158km
周期: 95.148分钟
每日圈数: 15.134287
详细信息
固有亮度:
5
最大亮度:
2.5
卫星平台:
Starlink v1.5
覆盖范围:
全球
运营商:
太空探索技术公司
运营商所在国:
美国
制造商(研发单位):
太空探索技术公司
制造商所在国:
美国
使用方式:
暂无
卫星简介
星链(Starlink)计划是由太空探索技术公司(SpaceX)提出的一个巨型低轨卫星互联网星座项目,计划在2019年至2024年间在太空搭建由约1.2万颗卫星组成的“星链”网络,其中1584颗将部署在地球上空550千米处的近地轨道,并从2020年开始工作。该卫星仍在工作。
2D轨道图
3D轨道图
轨道高度分析图
轨道倾角分析图
轨道综合分析图
查看轨道综合分析图